Weather reports worldwide

Advertisment
St. Mary's, United Kingdom (3803): temperature & dewpoint: 19.06.2018 16:00:00 - 25.06.2018 16:00:00 (BST)St. Mary's, United Kingdom (3803): temperature -20cm: 19.06.2018 16:00:00 - 25.06.2018 16:00:00 (BST)St. Mary's, United Kingdom (3803): wind speed & gusts: 19.06.2018 16:00:00 - 25.06.2018 16:00:00 (BST)St. Mary's, United Kingdom (3803): wind direction: 19.06.2018 16:00:00 - 25.06.2018 16:00:00 (BST)St. Mary's, United Kingdom (3803): reduced air pressure: 19.06.2018 16:00:00 - 25.06.2018 16:00:00 (BST)St. Mary's, United Kingdom (3803): visibility: 19.06.2018 16:00:00 - 25.06.2018 16:00:00 (BST)St. Mary's, United Kingdom (3803): precipitation: 19.06.2018 16:00:00 - 25.06.2018 16:00:00 (BST)
Date & Time tt [°C] td [°C] tt -20cm [°C] ff [km/h] ff [kn] fx [km/h] fx [kn] dd ppp [hPa] vv [km] rr [mm]
25.06.2018 16:00:00 18,9 14,1 - 21 11 - - E 1026,1 10 0,0
25.06.2018 15:00:00 19,5 14,8 - 21 11 - - E 1026,4 10 0,0
25.06.2018 14:00:00 19,3 14,9 - 18 10 - - E 1026,5 10 0,0
25.06.2018 13:00:00 18,5 14,1 - 18 10 - - E 1026,4 10 0,0
25.06.2018 12:00:00 19,0 14,4 - 16 9 - - E 1026,3 10 0,0
25.06.2018 11:00:00 18,9 14,4 - 16 9 - - E 1026,1 10 0,0
25.06.2018 10:00:00 17,7 14,2 18,7 15 8 - - E 1026,0 10 0,0
25.06.2018 09:00:00 17,1 14,2 - 13 7 - - E 1026,0 10 0,0
25.06.2018 08:00:00 16,5 13,8 - 15 8 - - ENE 1025,7 10 0,0
25.06.2018 07:00:00 15,3 14,5 - 15 8 - - NE 1025,6 25 0,0
25.06.2018 06:00:00 14,2 13,7 - 13 7 - - NE 1025,3 14 0,0
25.06.2018 05:00:00 14,0 13,6 - 11 6 - - NNE 1025,3 9 0,0
25.06.2018 04:00:00 14,1 13,6 - 13 7 - - NNE 1025,2 14 0,0
25.06.2018 03:00:00 14,1 13,4 - 13 7 - - NE 1025,3 15 0,0
25.06.2018 02:00:00 14,3 13,2 - 15 8 - - NNE 1025,6 27 0,0
25.06.2018 01:00:00 14,4 13,2 - 16 9 - - NNE 1025,8 28 0,0
25.06.2018 00:00:00 14,4 13,1 - 16 9 - - NNE 1025,7 30 0,0
24.06.2018 23:00:00 14,6 11,9 - 15 8 - - NE 1025,5 50 0,0
24.06.2018 22:00:00 15,2 10,6 - 16 9 - - NE 1025,1 50 0,0
24.06.2018 21:00:00 16,5 13,3 - 13 7 - - NNE 1024,9 50 0,0
24.06.2018 20:00:00 17,6 12,0 - 15 8 - - NNE 1024,7 40 0,0
24.06.2018 19:00:00 19,2 12,5 - 13 7 - - NE 1024,8 35 0,0
24.06.2018 18:00:00 18,4 13,5 - 13 7 - - NE 1024,9 45 0,0
24.06.2018 17:00:00 19,5 13,4 - 9 5 - - E 1025,0 40 0,0
24.06.2018 16:00:00 19,4 12,4 - 8 4 - - E 1025,1 29 0,0
24.06.2018 15:00:00 18,8 13,0 - 9 5 - - ESE 1025,4 35 0,0
24.06.2018 14:00:00 18,9 13,1 - 13 7 - - E 1025,6 40 0,0
24.06.2018 13:00:00 18,7 11,6 - 13 7 - - E 1025,6 50 0,0
24.06.2018 12:00:00 18,6 12,0 - 13 7 - - ENE 1026,0 30 0,0
24.06.2018 11:00:00 17,8 11,0 - 13 7 - - ENE 1025,8 30 0,0
24.06.2018 10:00:00 17,2 12,8 17,9 16 9 - - NE 1025,6 50 0,0
24.06.2018 09:00:00 16,5 14,0 - 15 8 - - NE 1025,8 30 0,0
24.06.2018 08:00:00 15,6 13,6 - 16 9 - - NE 1025,5 35 0,0
24.06.2018 07:00:00 14,8 12,9 - 15 8 - - NE 1025,4 30 0,0
24.06.2018 06:00:00 13,2 12,0 - 13 7 - - NE 1025,4 40 0,0
24.06.2018 05:00:00 13,1 12,1 - 13 7 - - NE 1025,5 45 0,0
24.06.2018 04:00:00 13,0 12,0 - 13 7 - - NE 1025,7 35 0,0
24.06.2018 03:00:00 13,1 11,7 - 13 7 - - NE 1025,8 45 0,0
24.06.2018 02:00:00 13,3 11,3 - 15 8 - - NE 1026,3 50 0,0
24.06.2018 01:00:00 13,2 11,4 - 13 7 - - NE 1026,7 50 0,0
24.06.2018 00:00:00 13,0 10,9 - 11 6 - - NNE 1027,1 45 0,0
23.06.2018 23:00:00 13,4 11,7 - 13 7 - - NE 1027,4 45 0,0
23.06.2018 22:00:00 13,5 11,6 - 11 6 - - NNE 1027,4 40 0,0
23.06.2018 21:00:00 14,8 11,7 - 11 6 - - NNE 1027,3 45 0,0
23.06.2018 20:00:00 15,9 11,6 - 11 6 - - NNE 1027,6 50 0,0
23.06.2018 19:00:00 16,7 12,9 - 13 7 - - NE 1027,6 25 0,0
23.06.2018 18:00:00 17,7 12,8 - 13 7 - - NE 1028,0 10 0,0
23.06.2018 17:00:00 17,1 12,8 - 15 8 - - NE 1028,4 10 0,0
23.06.2018 16:00:00 18,2 11,2 - 13 7 - - E 1028,7 10 0,0
23.06.2018 15:00:00 17,5 10,8 - 9 5 - - ESE 1029,2 10 0,0
23.06.2018 14:00:00 17,5 11,5 - 11 6 - - ESE 1029,6 10 0,0
23.06.2018 13:00:00 16,9 13,1 - 11 6 - - E 1029,8 10 0,0
23.06.2018 12:00:00 17,3 13,8 - 9 5 - - E 1030,1 35 0,0
23.06.2018 11:00:00 16,4 12,9 - 11 6 - - ENE 1030,1 10 0,0
23.06.2018 10:00:00 15,9 12,4 17,0 11 6 - - ENE 1030,0 10 0,0
23.06.2018 09:00:00 15,9 12,1 - 13 7 - - ENE 1030,1 10 0,0
23.06.2018 08:00:00 14,9 12,6 - 13 7 - - NE 1030,2 10 0,0
23.06.2018 07:00:00 13,8 12,1 - 13 7 - - NE 1029,7 26 0,0
23.06.2018 06:00:00 12,4 11,1 - 18 10 - - NE 1030,1 30 0,0
23.06.2018 05:00:00 12,3 10,8 - 18 10 - - NNE 1030,2 30 0,0
23.06.2018 04:00:00 12,2 10,7 - 21 11 - - NE 1030,1 35 0,0
23.06.2018 03:00:00 12,3 10,6 - 18 10 - - NNE 1030,1 35 0,0
23.06.2018 02:00:00 12,1 10,3 - 21 11 - - NNE 1030,5 50 0,0
23.06.2018 01:00:00 12,3 10,1 - 18 10 - - NE 1031,0 45 0,0
23.06.2018 00:00:00 12,5 10,4 - 18 10 - - NE 1031,5 35 0,0
22.06.2018 23:00:00 12,4 10,3 - 16 9 - - NNE 1031,3 35 0,0
22.06.2018 22:00:00 12,5 10,1 - 24 13 - - NNE 1031,2 40 0,0
22.06.2018 21:00:00 13,3 9,5 - 26 14 - - NNE 1031,1 30 0,0
22.06.2018 20:00:00 13,9 10,0 - 28 15 - - NNE 1031,3 35 0,0
22.06.2018 19:00:00 14,5 10,0 - 31 17 46 25 NNE 1031,5 35 0,0
22.06.2018 18:00:00 14,6 9,4 - 28 15 - - NNE 1032,0 10 0,0
22.06.2018 17:00:00 15,3 9,8 - 26 14 - - NNE 1032,3 10 0,0
22.06.2018 16:00:00 15,3 9,0 - 28 15 - - NNE 1032,5 10 0,0
22.06.2018 15:00:00 15,4 10,0 - 28 15 - - NNE 1032,9 10 0,0
22.06.2018 14:00:00 15,2 10,5 - 22 12 - - NE 1033,1 10 0,0
22.06.2018 13:00:00 15,0 10,5 - 26 14 - - NNE 1033,2 10 0,0
22.06.2018 12:00:00 14,8 9,5 - 28 15 - - NE 1033,4 10 0,0
22.06.2018 11:00:00 14,8 10,0 - 29 16 - - NE 1033,3 10 0,0
22.06.2018 10:00:00 14,2 9,1 16,9 26 14 - - NE 1033,3 10 0,0
22.06.2018 09:00:00 13,9 8,9 - 29 16 - - NE 1033,0 10 0,0
22.06.2018 08:00:00 13,5 9,1 - 29 16 - - NE 1033,0 10 0,0
22.06.2018 07:00:00 13,0 9,1 - 28 15 - - NE 1032,7 30 0,0
22.06.2018 06:00:00 12,4 8,9 - 29 16 - - NE 1032,5 40 0,0
22.06.2018 05:00:00 12,3 8,9 - 29 16 - - NNE 1032,2 45 0,0
22.06.2018 04:00:00 12,5 8,6 - 28 15 - - NNE 1032,3 35 0,0
22.06.2018 03:00:00 12,7 8,4 - 28 15 - - NNE 1032,1 50 0,0
22.06.2018 02:00:00 13,0 7,7 - 26 14 - - NNE 1032,2 50 0,0
22.06.2018 01:00:00 13,0 7,9 - 26 14 - - NNE 1032,4 50 0,0
22.06.2018 00:00:00 13,2 7,7 - 26 14 - - NNE 1032,4 50 0,0
21.06.2018 23:00:00 13,1 7,1 - 26 14 - - NNE 1032,4 50 0,0
21.06.2018 22:00:00 13,1 7,4 - 24 13 - - NNE 1032,2 50 0,0
21.06.2018 21:00:00 13,5 7,2 - 24 13 - - NNE 1031,8 40 0,0
21.06.2018 20:00:00 14,1 7,6 - 24 13 - - NNE 1031,8 23 0,0
21.06.2018 19:00:00 14,5 7,7 - 26 14 - - NNE 1031,6 35 0,0
21.06.2018 18:00:00 14,6 7,2 - 26 14 - - NNE 1031,6 50 0,0
21.06.2018 17:00:00 15,3 8,8 - 28 15 - - NNE 1031,5 10 0,0
21.06.2018 16:00:00 14,6 7,8 - 29 16 - - NNE 1031,4 10 0,0
21.06.2018 15:00:00 14,9 8,2 - 29 16 - - NNE 1031,1 10 0,0
21.06.2018 14:00:00 14,9 7,8 - 31 17 - - NNE 1030,9 10 0,0
21.06.2018 13:00:00 15,0 8,1 - 34 18 46 25 NNE 1030,3 10 0,0
21.06.2018 12:00:00 14,9 7,6 - 29 16 - - NNE 1030,1 10 0,0
21.06.2018 11:00:00 14,6 7,3 - 28 15 - - NNE 1029,9 10 0,0
21.06.2018 10:00:00 13,7 7,9 17,2 29 16 - - NNE 1029,7 10 0,0
21.06.2018 09:00:00 13,9 8,3 - 26 14 - - NNE 1029,2 10 0,0
21.06.2018 08:00:00 13,4 8,8 - 26 14 - - NNE 1028,8 10 0,0
21.06.2018 07:00:00 13,2 8,5 - 26 14 - - NNE 1028,2 35 0,0
21.06.2018 06:00:00 12,8 8,6 - 26 14 - - N 1027,6 35 0,0
21.06.2018 05:00:00 13,0 8,1 - 24 13 - - N 1027,0 45 0,0
21.06.2018 04:00:00 13,1 8,8 - 24 13 - - N 1026,8 45 0,0
21.06.2018 03:00:00 13,5 9,5 - 28 15 - - N 1026,4 30 0,0
21.06.2018 02:00:00 13,5 10,4 - 26 14 - - N 1026,1 30 0,0
21.06.2018 01:00:00 12,9 11,0 - 16 9 - - NNW 1025,9 50 0,0
21.06.2018 00:00:00 12,9 11,3 - 15 8 - - N 1026,0 40 0,0
20.06.2018 23:00:00 13,1 11,1 - 15 8 - - N 1025,7 40 0,0
20.06.2018 22:00:00 13,6 11,3 - 15 8 - - N 1025,2 45 0,0
20.06.2018 21:00:00 14,7 12,0 - 21 11 - - N 1024,3 30 0,0
20.06.2018 20:00:00 15,1 12,0 - 22 12 - - N 1023,8 35 0,0
20.06.2018 19:00:00 15,6 13,6 - 21 11 - - N 1023,3 35 0,0
20.06.2018 18:00:00 16,0 13,2 - 26 14 - - NW 1022,8 10 0,0
20.06.2018 17:00:00 15,4 13,8 - 18 10 - - WNW 1022,6 10 0,0
20.06.2018 16:00:00 16,4 13,6 - 18 10 - - WNW 1022,8 10 0,0
20.06.2018 15:00:00 17,0 15,5 - 16 9 - - WNW 1022,7 8 0,0
20.06.2018 14:00:00 16,4 15,0 - 18 10 - - WNW 1022,6 4,0 0,0
20.06.2018 13:00:00 16,8 16,4 - 21 11 - - WSW 1022,4 2,0 0,0
20.06.2018 12:00:00 17,0 16,2 - 22 12 - - WSW 1022,4 4,0 0,0
20.06.2018 11:00:00 16,6 16,5 - 21 11 - - SW 1022,1 10 0,0
20.06.2018 10:00:00 15,6 15,6 17,7 22 12 - - SW 1022,0 6 0,0
20.06.2018 09:00:00 15,0 15,0 - 21 11 - - SSW 1022,0 0,6 0,0
20.06.2018 08:00:00 14,7 14,7 - 22 12 - - SSW 1021,8 0,5 0,0
20.06.2018 07:00:00 14,4 14,4 - 22 12 - - SSW 1021,8 0,6 0,0
20.06.2018 06:00:00 14,2 14,2 - 22 12 - - SSW 1021,8 0,5 0,0
20.06.2018 05:00:00 14,2 14,1 - 21 11 - - SW 1021,8 0,4 0,0
20.06.2018 04:00:00 14,0 14,0 - 22 12 - - SW 1022,1 0,5 0,2
20.06.2018 03:00:00 13,9 13,9 - 21 11 - - SSW 1022,2 0,4 0,0
20.06.2018 02:00:00 14,0 13,9 - 21 11 - - SSW 1022,5 14 0,0
20.06.2018 01:00:00 14,1 14,1 - 18 10 - - SW 1023,0 0,3 0,0
20.06.2018 00:00:00 14,2 14,1 - 21 11 - - SSW 1023,1 4,6 0,0
19.06.2018 23:00:00 14,4 14,3 - 21 11 - - SSW 1023,5 2,3 0,2
19.06.2018 22:00:00 14,7 14,4 - 18 10 - - SSW 1023,5 1,7 0,0
19.06.2018 21:00:00 14,9 14,5 - 22 12 - - SW 1023,5 35 0,0
19.06.2018 20:00:00 15,7 14,9 - 16 9 - - SW 1023,8 9 0,0
19.06.2018 19:00:00 16,4 15,1 - 16 9 - - SW 1024,0 21 0,0
19.06.2018 18:00:00 17,0 15,4 - 21 11 - - SW 1024,3 10 0,0
19.06.2018 17:00:00 17,4 15,5 - 21 11 - - SW 1024,5 23 0,0
19.06.2018 16:00:00 18,3 16,0 - 22 12 - - SSW 1024,5 10 0,0

tt = temperature
td = dewpoint
tt -20cm = temperature -20cm
ff = wind speed
fx = gusts
dd = wind direction
ppp = reduced air pressure
vv = visibility
rr = precipitation

Next stations